Regional Weather Roundup
Issued by NWS Columbia, SC

Home | Current Version | Previous Version | Text Only | Print | Product List | Glossary On
Versions: 1 2 3 4 5 6 7 8 9 10 11 12 13 14 15 16 17 18 19 20 21 22 23 24 25 26 27 28 29 30 31 32 33 34 35 36 37 38 39 40 41 42 43 44 45 46 47 48 49 50
000
ASUS42 KCAE 131610
RWRCAE
REGIONAL WEATHER ROUNDUP
NATIONAL WEATHER SERVICE COLUMBIA SC
1200 PM EDT SUN JUL 13 2014

NOTE: "FAIR" INDICATES FEW OR NO CLOUDS BELOW 12,000 FEET WITH NO
SIGNIFICANT WEATHER AND/OR OBSTRUCTIONS TO VISIBILITY.

NOT ALL STATIONS ARE QUALITY CONTROLLED BY THE NATIONAL
WEATHER SERVICE. USE DATA WITH CAUTION...ESPECIALLY
DEWPOINT OBSERVATIONS.

SCZ001>056-GAZ040-063>065-077-131700-
...UPSTATE SOUTH CAROLINA...

CITY           SKY/WX    TMP DP  RH WIND       PRES   REMARKS
ANDERSON       MOSUNNY   86  67  52 S5        30.16S
LIBERTY        FAIR      87  86  97 SW7       30.16F HX 116
SPARTANBURG    FAIR      88  70  55 W5        30.15F
CLEMSON        MOSUNNY   87  67  51 VRB3      30.17F
GREENVILLE     MOSUNNY   86  67  52 VRB7      30.17F
GREENWOOD      SUNNY     85  67  54 CALM      30.17F
GREER          SUNNY     87  68  52 SW9       30.15F
ROCK HILL      SUNNY     86  67  52 VRB5      30.15F
CHESTER        FAIR      88  70  55 S7        30.16F
LAURENS        PTSUNNY   88  68  51 CALM      30.16F


...CENTRAL SOUTH CAROLINA...

CITY           SKY/WX    TMP DP  RH WIND       PRES   REMARKS
COLUMBIA APT   PTSUNNY   86  68  54 VRB3      30.14F
COLUMBIA OWENS MOSUNNY   86  69  56 S5        30.15F
DARLINGTON     MOSUNNY   88  70  55 CALM      30.15F
FLORENCE       PTSUNNY   87  70  56 W7        30.15S
MCENTIRE ANGB  PTSUNNY   87  70  57 SE6       30.15F
ORANGEBURG     MOSUNNY   86  68  54 CALM      30.15S
SUMTER SHAW    MOSUNNY   87  70  56 VRB2      30.13F
NEWBERRY       FAIR      86  68  54 W5        30.18F
AIKEN          FAIR      86  72  62 SE5       30.19F
BARNWELL       PTSUNNY   88  70  55 SW5       30.16S
MANNING        PTSUNNY   88  73  62 SE3       30.15S HX  96
CAMDEN         FAIR      86  72  62 S3        30.15F
LANCASTER        N/A     84  72  65 S6        30.15F
WINNSBORO      PTSUNNY   86  68  54 SE3       30.16S


...EASTERN AND COASTAL SOUTH CAROLINA...

CITY           SKY/WX    TMP DP  RH WIND       PRES   REMARKS
MYRTLE BEACH   MOSUNNY   84  73  70 S14       30.15S
N MYRTLE BCH   MOSUNNY   84  73  69 S8        30.15R
CONWAY         PTSUNNY   84  70  61 S3        30.16R
MARION         FAIR      82  72  69 CALM      30.15S
HARTSVILLE     FAIR      88  50  27 SW6       30.15F
FLORENCE       PTSUNNY   87  70  56 W7        30.15S
DARLINGTON     MOSUNNY   88  70  55 CALM      30.15F
CHARLESTON APT PTSUNNY   85  71  63 NW3       30.16S
MOUNT PLEASANT LGT RAIN  81  75  83 S6        30.17R
WALTERBORO     PTSUNNY   84  68  58 S7        30.16S
BEAUFORT       LGT RAIN  76  73  91 SE3       30.17F


...EASTERN GEORGIA...

CITY           SKY/WX    TMP DP  RH WIND       PRES   REMARKS
AUGUSTA BUSH F PTSUNNY   85  68  56 VRB3      30.14F
AUGUSTA DANIEL MOSUNNY   85  69  58 CALM      30.16F
THOMSON        PTSUNNY   85  75  72 CALM      30.20F
WASHINGTON     FAIR      86  73  66 CALM      30.16S
CLAXTON        FAIR      86  73  66 CALM      30.15F
SYLVANIA       MOSUNNY   83  74  72 CALM      30.17S
STATESBORO     PTSUNNY   83  70  65 W3        30.15S
SAVANNAH       PTSUNNY   82  72  71 CALM      30.17S


...SOUTHERN NORTH CAROLINA...

CITY           SKY/WX    TMP DP  RH WIND       PRES   REMARKS
CHARLOTTE      PTSUNNY   87  66  49 SW6       30.15F
MONROE         MOSUNNY   87  68  52 SW7       30.14F
WADESBORO      MOSUNNY   87  68  54 S8        30.13F
ROCKINGHAM       N/A     84  72  65 CALM      30.14F
RUTHERFORDTON  MOSUNNY   84  71  65 SW7       30.17S
ASHEVILLE      PTSUNNY   81  66  60 CALM      30.22F

$$


USA.gov is the U.S. government's official web portal to all federal, state and local government web resources and services.